Regional Weather Roundup
Issued by NWS Upton, NY

Current Version | Previous Version | Graphics & Text | Print | Product List | Glossary Off
Versions: 1 2 3 4 5 6 7 8 9 10 11 12 13 14 15 16 17 18 19 20 21 22 23 24 25 26 27 28 29 30 31 32 33 34 35 36 37 38 39 40 41 42 43 44 45 46

000
ASUS41 KOKX 260705
RWROKX

REGIONAL WEATHER ROUNDUP
NATIONAL WEATHER SERVICE NEW YORK NY
200 AM EST FRI DEC 26 2014

NOTE: "FAIR" INDICATES FEW OR NO CLOUDS BELOW 12,000 FEET WITH NO
SIGNIFICANT WEATHER AND/OR OBSTRUCTIONS TO VISIBILITY.

NYZ071-072-176-178-NJZ106-104-260800-
NEW YORK CITY METRO AREA


CITY           SKY/WX    TMP DP  RH WIND       PRES   REMARKS
CENTRAL PARK   CLEAR     43  28  55 W7        30.16R
LAGUARDIA APRT CLEAR     44  28  53 W10       30.14R
KENNEDY INTL   CLEAR     42  31  64 W9        30.16R
NEWARK/LIBERTY CLEAR     39  30  70 SW9       30.16R WCI  33
BRNX BOT. GARD   N/A    N/A N/A N/A W10       30.14S
TETERBORO      CLEAR     39  30  70 SW7       30.14R WCI  34
$$

NYZ177-179-078>081-260800-
LONG ISLAND NEW YORK

CITY           SKY/WX    TMP DP  RH WIND       PRES   REMARKS
FARMINGDALE    CLEAR     41  29  62 W8        30.13R
ISLIP          CLEAR     40  29  64 W6        30.10S
SHIRLEY        CLEAR     41  30  65 SW5       30.12R
WESTHAMPTON    CLEAR     36  27  69 W6        30.12R WCI  31
MONTAUK POINT    N/A     45  34  65 W8        30.10R
$$

NYZ052-065-067-260800-
HUDSON VALLEY

CITY           SKY/WX    TMP DP  RH WIND       PRES   REMARKS
WHITE PLAINS   CLEAR     40  27  59 W9        30.10R WCI  34
NEWBURGH       PTCLDY    39  30  70 CALM      30.12R
MONTGOMERY     CLOUDY    38  27  64 SW6       30.10R WCI  33
POUGHKEEPSIE   PTCLDY    35  27  72 CALM      30.11R
ALBANY         CLOUDY    42  29  59 W10G18    30.09F
$$

NJZ001-105-106-008-010-013-015-019>022-104-260800-
NEW JERSEY

CITY           SKY/WX    TMP DP  RH WIND       PRES   REMARKS
NEWARK/LIBERTY CLEAR     39  30  70 SW9       30.16R WCI  33
TETERBORO      CLEAR     39  30  70 SW7       30.14R WCI  34
CALDWELL       CLEAR     37  28  70 SW3       30.15R
MORRISTOWN     CLEAR     36  32  87 CALM      30.15R
SOMERVILLE     CLEAR     37  28  70 VRB3      30.15R
SUSSEX         CLEAR     32  26  78 CALM      30.13R
ANDOVER        NOT AVBL
TRENTON        CLEAR     38  28  67 W6        30.19R WCI  33
MILLVILLE      CLEAR     32  29  88 W5        30.21R WCI  27
ATLANTIC CITY  CLEAR     37  30  75 W6        30.20R WCI  32
WRIGHTSTOWN    CLEAR     38  29  69 W8        30.17R WCI  33
TOMS RIVER     CLEAR     32  28  86 CALM      30.16S
BELMAR         CLEAR     39  27  60 W8        30.16S WCI  34
$$

PAZ047>061-062-071-260800-
EASTERN PENNSYLVANIA

CITY           SKY/WX    TMP DP  RH WIND       PRES   REMARKS
PHILADELPHIA   CLEAR     36  29  75 W9        30.22R WCI  29
ALLENTOWN      CLEAR     40  27  59 W9        30.17R WCI  34
SCRANTON       CLEAR     37  27  67 SW7       30.14R WCI  32
$$

CTZ002-004>006-009-010-012-RIZ004-006-007-MAZ004-011-015-260800-
SOUTHERN NEW ENGLAND
 IN CT

CITY           SKY/WX    TMP DP  RH WIND       PRES   REMARKS
BRADLEY INTL   CLEAR     39  27  62 NW6       30.06R WCI  35
HARTFORD       PTCLDY    38  29  70 S5        30.08R WCI  34
DANBURY        CLEAR     35  26  69 SW5       30.11R WCI  31
WTRBRY/OXFORD  CLEAR     39  25  56 W5        30.08S
BRIDGEPORT     CLEAR     42  33  70 W5        30.10S
MERIDEN        CLEAR     30  27  88 CALM      30.09R
NEW HAVEN      CLEAR     45  31  58 VRB3      30.09R
CHESTER        FAIR      37  30  75 W5        30.08R WCI  34
GROTON         FAIR      40  30  67 W6        30.09R
WILLIMANTIC    CLEAR     42  28  57 W3        30.07R

 IN RI

CITY           SKY/WX    TMP DP  RH WIND       PRES   REMARKS
PROVIDENCE     CLEAR     41  29  62 W9        30.07R
BLOCK ISLAND   CLEAR     45  34  65 W10       30.08R
WESTERLY       CLEAR     42  30  62 W7        30.09R

 IN MA

CITY           SKY/WX    TMP DP  RH WIND       PRES   REMARKS
BOSTON         CLEAR     42  28  57 W12       30.02R
WORCESTER      CLEAR     38  27  64 W15G21    30.00R WCI  29
WESTFIELD      CLOUDY    43  27  53 NW14G22   30.06R
PROVINCETOWN   CLEAR     43  30  61 W18       30.03R
NANTUCKET      CLEAR     45  33  63 W12       30.06R
$$

ANZ330-335-338-340-345-350-353-355-260800-
COASTAL MARINE OBSERVATIONS


STATION/POSITION TIME  SKY/WX   TEMP    WIND        PRES    VSBY  WAVE
                                AIR SEA DIR/SP/G                  HT/PER
                 (UTC)          (F)     (DEG/KT/KT) (MB)    (MI)  (FT/S)
NY HARB ENTRANCE 0700            44 46  270/ 16/ 17 1021.4          3/ 3
4S FIRE IS       0700               47                N/A           4/ 4
20S FIRE ISLAND  0600            45 49              1020.2          4/ 5
23SW MTP         0700                                 N/A           5/ 6
HUDSON CANYON    0700            48 55  300/ 21/ 25 1020.3
EXECUTION ROCKS  0700            44 42  250/ 10/ 14   N/A
WESTERN LI SOUND 0700            44     240/ 10/ 12   N/A           1/ 3
CENTRAL LI SOUND 0600            45 44  260/ 16/ 19   N/A           2/ 5
EASTERN LI SOUND NOT AVBL
ROBBINS REEF     0700            42                 1019.6
$$


>>>>>>>>>>>>>>>>>>>>>>>>>>>> KEY <<<<<<<<<<<<<<<<<<<<<<<<<<<
>                                                          <
>     SKY/WX - SKY CONDITION/PRESENT WEATHER               <
>     TMP    - TEMPERATURE IN FAHRENHEIT                   <
>     DP     - DEWPOINT IN FAHRENHEIT                      <
>     RH     - RELATIVE HUMIDITY IN PERCENT                <
>     WIND   - DIRECTION AND SPEED IN MPH                  <
>     PRES   - MEAN SEA LEVEL PRESSURE IN INCHES OF HG     <
>     WCI    - WIND CHILL INDEX                            <
>     VSB    - VISIBILITY IN MILES                         <
>     HX     - HEAT INDEX                                  <
>     TC     - TEMPERATURE IN CELSIUS                      <
>     VRB    - VARIABLE WIND DIRECTION                     <
>                                                          <
>>>>>>>>>>>>>>>>>>>>>>>>>>>> KEY <<<<<<<<<<<<<<<<<<<<<<<<<<<





USA.gov is the U.S. government's official web portal to all federal, state and local government web resources and services.